<?xml version="1.0" encoding="UTF-8" standalone="no" ?>
<gpx xmlns="http://www.topografix.com/GPX/1/1" xmlns:xsi="http://www.w3.org/2001/XMLSchema-instance" xsi:schemaLocation="http://www.topografix.com/GPX/1/1 http://www.topografix.com/GPX/1/1/gpx.xsd" version="1.1" creator="VisuGPX - https://www.visugpx.com">
  <metadata>
    <name>13799595-PAT LETRA1</name>
  </metadata>
  <trk>
    <name><![CDATA[13799595-PAT LETRA1]]></name>
    <trkseg>
      <trkpt lat="45.95892" lon="4.51905">
        <ele>288</ele>
        <time>2021-12-28T14:24:09Z</time>
      </trkpt>
      <trkpt lat="45.95915" lon="4.51872">
        <ele>288</ele>
        <time>2021-12-28T14:24:52Z</time>
      </trkpt>
      <trkpt lat="45.95972" lon="4.51802">
        <ele>291</ele>
        <time>2021-12-28T14:26:32Z</time>
      </trkpt>
      <trkpt lat="45.96036" lon="4.5174">
        <ele>291</ele>
        <time>2021-12-28T14:28:15Z</time>
      </trkpt>
      <trkpt lat="45.96112" lon="4.51679">
        <ele>292</ele>
        <time>2021-12-28T14:30:11Z</time>
      </trkpt>
      <trkpt lat="45.96121" lon="4.51666">
        <ele>291</ele>
        <time>2021-12-28T14:30:28Z</time>
      </trkpt>
      <trkpt lat="45.96123" lon="4.51683">
        <ele>293</ele>
        <time>2021-12-28T14:30:44Z</time>
      </trkpt>
      <trkpt lat="45.9612" lon="4.51714">
        <ele>296</ele>
        <time>2021-12-28T14:31:14Z</time>
      </trkpt>
      <trkpt lat="45.96099" lon="4.5177">
        <ele>299</ele>
        <time>2021-12-28T14:32:13Z</time>
      </trkpt>
      <trkpt lat="45.9606" lon="4.51838">
        <ele>302</ele>
        <time>2021-12-28T14:33:34Z</time>
      </trkpt>
      <trkpt lat="45.96044" lon="4.51958">
        <ele>311</ele>
        <time>2021-12-28T14:35:28Z</time>
      </trkpt>
      <trkpt lat="45.96044" lon="4.51986">
        <ele>313</ele>
        <time>2021-12-28T14:35:54Z</time>
      </trkpt>
      <trkpt lat="45.96051" lon="4.52016">
        <ele>316</ele>
        <time>2021-12-28T14:36:23Z</time>
      </trkpt>
      <trkpt lat="45.96084" lon="4.52105">
        <ele>322</ele>
        <time>2021-12-28T14:37:57Z</time>
      </trkpt>
      <trkpt lat="45.96131" lon="4.52169">
        <ele>331</ele>
        <time>2021-12-28T14:39:23Z</time>
      </trkpt>
      <trkpt lat="45.96157" lon="4.52213">
        <ele>334</ele>
        <time>2021-12-28T14:40:17Z</time>
      </trkpt>
      <trkpt lat="45.96183" lon="4.5226">
        <ele>339</ele>
        <time>2021-12-28T14:41:12Z</time>
      </trkpt>
      <trkpt lat="45.96203" lon="4.5228">
        <ele>344</ele>
        <time>2021-12-28T14:41:45Z</time>
      </trkpt>
      <trkpt lat="45.96223" lon="4.52294">
        <ele>348</ele>
        <time>2021-12-28T14:42:14Z</time>
      </trkpt>
      <trkpt lat="45.96222" lon="4.52315">
        <ele>347</ele>
        <time>2021-12-28T14:42:34Z</time>
      </trkpt>
      <trkpt lat="45.96211" lon="4.52383">
        <ele>345</ele>
        <time>2021-12-28T14:43:39Z</time>
      </trkpt>
      <trkpt lat="45.96209" lon="4.52409">
        <ele>345</ele>
        <time>2021-12-28T14:44:03Z</time>
      </trkpt>
      <trkpt lat="45.96212" lon="4.52458">
        <ele>345</ele>
        <time>2021-12-28T14:44:49Z</time>
      </trkpt>
      <trkpt lat="45.96099" lon="4.5249">
        <ele>329</ele>
        <time>2021-12-28T14:47:22Z</time>
      </trkpt>
      <trkpt lat="45.96102" lon="4.52517">
        <ele>330</ele>
        <time>2021-12-28T14:47:48Z</time>
      </trkpt>
      <trkpt lat="45.96109" lon="4.52538">
        <ele>331</ele>
        <time>2021-12-28T14:48:09Z</time>
      </trkpt>
      <trkpt lat="45.96108" lon="4.52592">
        <ele>330</ele>
        <time>2021-12-28T14:48:59Z</time>
      </trkpt>
      <trkpt lat="45.96099" lon="4.52617">
        <ele>329</ele>
        <time>2021-12-28T14:49:25Z</time>
      </trkpt>
      <trkpt lat="45.96088" lon="4.52621">
        <ele>327</ele>
        <time>2021-12-28T14:49:41Z</time>
      </trkpt>
      <trkpt lat="45.96078" lon="4.52619">
        <ele>326</ele>
        <time>2021-12-28T14:49:54Z</time>
      </trkpt>
      <trkpt lat="45.96042" lon="4.52642">
        <ele>321</ele>
        <time>2021-12-28T14:50:47Z</time>
      </trkpt>
      <trkpt lat="45.96032" lon="4.52665">
        <ele>319</ele>
        <time>2021-12-28T14:51:12Z</time>
      </trkpt>
      <trkpt lat="45.96008" lon="4.52632">
        <ele>316</ele>
        <time>2021-12-28T14:51:56Z</time>
      </trkpt>
      <trkpt lat="45.96003" lon="4.52648">
        <ele>315</ele>
        <time>2021-12-28T14:52:12Z</time>
      </trkpt>
      <trkpt lat="45.96005" lon="4.52665">
        <ele>316</ele>
        <time>2021-12-28T14:52:28Z</time>
      </trkpt>
      <trkpt lat="45.9601" lon="4.52689">
        <ele>317</ele>
        <time>2021-12-28T14:52:52Z</time>
      </trkpt>
      <trkpt lat="45.96023" lon="4.52717">
        <ele>319</ele>
        <time>2021-12-28T14:53:23Z</time>
      </trkpt>
      <trkpt lat="45.96028" lon="4.52731">
        <ele>320</ele>
        <time>2021-12-28T14:53:37Z</time>
      </trkpt>
      <trkpt lat="45.96029" lon="4.52747">
        <ele>320</ele>
        <time>2021-12-28T14:53:52Z</time>
      </trkpt>
      <trkpt lat="45.96024" lon="4.52759">
        <ele>321</ele>
        <time>2021-12-28T14:54:05Z</time>
      </trkpt>
      <trkpt lat="45.96011" lon="4.52762">
        <ele>322</ele>
        <time>2021-12-28T14:54:23Z</time>
      </trkpt>
      <trkpt lat="45.95999" lon="4.52762">
        <ele>322</ele>
        <time>2021-12-28T14:54:39Z</time>
      </trkpt>
      <trkpt lat="45.95983" lon="4.5277">
        <ele>324</ele>
        <time>2021-12-28T14:55:02Z</time>
      </trkpt>
      <trkpt lat="45.95977" lon="4.52779">
        <ele>326</ele>
        <time>2021-12-28T14:55:13Z</time>
      </trkpt>
      <trkpt lat="45.95976" lon="4.52794">
        <ele>327</ele>
        <time>2021-12-28T14:55:27Z</time>
      </trkpt>
      <trkpt lat="45.95982" lon="4.5282">
        <ele>330</ele>
        <time>2021-12-28T14:55:53Z</time>
      </trkpt>
      <trkpt lat="45.95979" lon="4.52831">
        <ele>331</ele>
        <time>2021-12-28T14:56:03Z</time>
      </trkpt>
      <trkpt lat="45.95964" lon="4.52857">
        <ele>335</ele>
        <time>2021-12-28T14:56:35Z</time>
      </trkpt>
      <trkpt lat="45.9595" lon="4.5289">
        <ele>339</ele>
        <time>2021-12-28T14:57:11Z</time>
      </trkpt>
      <trkpt lat="45.95925" lon="4.5292">
        <ele>343</ele>
        <time>2021-12-28T14:57:54Z</time>
      </trkpt>
      <trkpt lat="45.9592" lon="4.52929">
        <ele>344</ele>
        <time>2021-12-28T14:58:05Z</time>
      </trkpt>
      <trkpt lat="45.95914" lon="4.52948">
        <ele>345</ele>
        <time>2021-12-28T14:58:24Z</time>
      </trkpt>
      <trkpt lat="45.95898" lon="4.5301">
        <ele>347</ele>
        <time>2021-12-28T14:59:26Z</time>
      </trkpt>
      <trkpt lat="45.95886" lon="4.53045">
        <ele>348</ele>
        <time>2021-12-28T15:00:02Z</time>
      </trkpt>
      <trkpt lat="45.95872" lon="4.53069">
        <ele>348</ele>
        <time>2021-12-28T15:00:31Z</time>
      </trkpt>
      <trkpt lat="45.95866" lon="4.53074">
        <ele>348</ele>
        <time>2021-12-28T15:00:40Z</time>
      </trkpt>
      <trkpt lat="45.95865" lon="4.53081">
        <ele>348</ele>
        <time>2021-12-28T15:00:47Z</time>
      </trkpt>
      <trkpt lat="45.9585" lon="4.53115">
        <ele>348</ele>
        <time>2021-12-28T15:01:24Z</time>
      </trkpt>
      <trkpt lat="45.95838" lon="4.53147">
        <ele>347</ele>
        <time>2021-12-28T15:01:58Z</time>
      </trkpt>
      <trkpt lat="45.95818" lon="4.53197">
        <ele>346</ele>
        <time>2021-12-28T15:02:51Z</time>
      </trkpt>
      <trkpt lat="45.95797" lon="4.53278">
        <ele>347</ele>
        <time>2021-12-28T15:04:11Z</time>
      </trkpt>
      <trkpt lat="45.95784" lon="4.53324">
        <ele>348</ele>
        <time>2021-12-28T15:04:58Z</time>
      </trkpt>
      <trkpt lat="45.95768" lon="4.53357">
        <ele>347</ele>
        <time>2021-12-28T15:05:35Z</time>
      </trkpt>
      <trkpt lat="45.95748" lon="4.53382">
        <ele>345</ele>
        <time>2021-12-28T15:06:10Z</time>
      </trkpt>
      <trkpt lat="45.95741" lon="4.53387">
        <ele>345</ele>
        <time>2021-12-28T15:06:21Z</time>
      </trkpt>
      <trkpt lat="45.95737" lon="4.53459">
        <ele>340</ele>
        <time>2021-12-28T15:07:28Z</time>
      </trkpt>
      <trkpt lat="45.95723" lon="4.53572">
        <ele>329</ele>
        <time>2021-12-28T15:09:14Z</time>
      </trkpt>
      <trkpt lat="45.95716" lon="4.536">
        <ele>327</ele>
        <time>2021-12-28T15:09:42Z</time>
      </trkpt>
      <trkpt lat="45.95701" lon="4.53629">
        <ele>326</ele>
        <time>2021-12-28T15:10:15Z</time>
      </trkpt>
      <trkpt lat="45.95667" lon="4.53654">
        <ele>322</ele>
        <time>2021-12-28T15:11:06Z</time>
      </trkpt>
      <trkpt lat="45.95645" lon="4.53693">
        <ele>318</ele>
        <time>2021-12-28T15:11:53Z</time>
      </trkpt>
      <trkpt lat="45.9564" lon="4.53713">
        <ele>317</ele>
        <time>2021-12-28T15:12:13Z</time>
      </trkpt>
      <trkpt lat="45.95643" lon="4.53736">
        <ele>318</ele>
        <time>2021-12-28T15:12:34Z</time>
      </trkpt>
      <trkpt lat="45.9565" lon="4.53762">
        <ele>318</ele>
        <time>2021-12-28T15:13:00Z</time>
      </trkpt>
      <trkpt lat="45.95658" lon="4.53779">
        <ele>318</ele>
        <time>2021-12-28T15:13:19Z</time>
      </trkpt>
      <trkpt lat="45.95661" lon="4.53797">
        <ele>317</ele>
        <time>2021-12-28T15:13:36Z</time>
      </trkpt>
      <trkpt lat="45.95675" lon="4.53829">
        <ele>317</ele>
        <time>2021-12-28T15:14:11Z</time>
      </trkpt>
      <trkpt lat="45.95685" lon="4.53858">
        <ele>319</ele>
        <time>2021-12-28T15:14:41Z</time>
      </trkpt>
      <trkpt lat="45.95708" lon="4.53899">
        <ele>321</ele>
        <time>2021-12-28T15:15:30Z</time>
      </trkpt>
      <trkpt lat="45.95746" lon="4.53931">
        <ele>324</ele>
        <time>2021-12-28T15:16:29Z</time>
      </trkpt>
      <trkpt lat="45.95779" lon="4.53938">
        <ele>327</ele>
        <time>2021-12-28T15:17:14Z</time>
      </trkpt>
      <trkpt lat="45.95809" lon="4.53951">
        <ele>329</ele>
        <time>2021-12-28T15:17:55Z</time>
      </trkpt>
      <trkpt lat="45.95859" lon="4.54002">
        <ele>330</ele>
        <time>2021-12-28T15:19:17Z</time>
      </trkpt>
      <trkpt lat="45.95886" lon="4.54069">
        <ele>329</ele>
        <time>2021-12-28T15:20:29Z</time>
      </trkpt>
      <trkpt lat="45.95907" lon="4.54091">
        <ele>330</ele>
        <time>2021-12-28T15:21:04Z</time>
      </trkpt>
      <trkpt lat="45.95919" lon="4.54094">
        <ele>331</ele>
        <time>2021-12-28T15:21:20Z</time>
      </trkpt>
      <trkpt lat="45.95965" lon="4.54088">
        <ele>340</ele>
        <time>2021-12-28T15:22:22Z</time>
      </trkpt>
      <trkpt lat="45.95969" lon="4.5409">
        <ele>340</ele>
        <time>2021-12-28T15:22:27Z</time>
      </trkpt>
      <trkpt lat="45.95971" lon="4.54098">
        <ele>339</ele>
        <time>2021-12-28T15:22:35Z</time>
      </trkpt>
      <trkpt lat="45.95968" lon="4.54111">
        <ele>337</ele>
        <time>2021-12-28T15:22:48Z</time>
      </trkpt>
      <trkpt lat="45.95972" lon="4.54128">
        <ele>336</ele>
        <time>2021-12-28T15:23:04Z</time>
      </trkpt>
      <trkpt lat="45.96006" lon="4.54172">
        <ele>337</ele>
        <time>2021-12-28T15:24:06Z</time>
      </trkpt>
      <trkpt lat="45.96021" lon="4.54185">
        <ele>339</ele>
        <time>2021-12-28T15:24:29Z</time>
      </trkpt>
      <trkpt lat="45.96047" lon="4.54219">
        <ele>342</ele>
        <time>2021-12-28T15:25:16Z</time>
      </trkpt>
      <trkpt lat="45.96061" lon="4.54245">
        <ele>344</ele>
        <time>2021-12-28T15:25:46Z</time>
      </trkpt>
      <trkpt lat="45.96076" lon="4.54314">
        <ele>340</ele>
        <time>2021-12-28T15:26:53Z</time>
      </trkpt>
      <trkpt lat="45.96157" lon="4.54406">
        <ele>346</ele>
        <time>2021-12-28T15:29:11Z</time>
      </trkpt>
      <trkpt lat="45.96166" lon="4.54429">
        <ele>345</ele>
        <time>2021-12-28T15:29:36Z</time>
      </trkpt>
      <trkpt lat="45.96192" lon="4.54468">
        <ele>347</ele>
        <time>2021-12-28T15:30:26Z</time>
      </trkpt>
      <trkpt lat="45.96213" lon="4.54491">
        <ele>347</ele>
        <time>2021-12-28T15:31:01Z</time>
      </trkpt>
      <trkpt lat="45.96229" lon="4.54497">
        <ele>348</ele>
        <time>2021-12-28T15:31:23Z</time>
      </trkpt>
      <trkpt lat="45.96242" lon="4.54508">
        <ele>348</ele>
        <time>2021-12-28T15:31:43Z</time>
      </trkpt>
      <trkpt lat="45.96252" lon="4.54525">
        <ele>348</ele>
        <time>2021-12-28T15:32:04Z</time>
      </trkpt>
      <trkpt lat="45.96262" lon="4.5461">
        <ele>353</ele>
        <time>2021-12-28T15:33:24Z</time>
      </trkpt>
      <trkpt lat="45.96289" lon="4.54633">
        <ele>359</ele>
        <time>2021-12-28T15:34:06Z</time>
      </trkpt>
      <trkpt lat="45.96433" lon="4.54694">
        <ele>362</ele>
        <time>2021-12-28T15:37:26Z</time>
      </trkpt>
      <trkpt lat="45.96461" lon="4.54728">
        <ele>366</ele>
        <time>2021-12-28T15:38:15Z</time>
      </trkpt>
      <trkpt lat="45.96514" lon="4.54746">
        <ele>359</ele>
        <time>2021-12-28T15:39:27Z</time>
      </trkpt>
      <trkpt lat="45.96537" lon="4.54757">
        <ele>359</ele>
        <time>2021-12-28T15:40:00Z</time>
      </trkpt>
      <trkpt lat="45.96557" lon="4.54772">
        <ele>360</ele>
        <time>2021-12-28T15:40:30Z</time>
      </trkpt>
      <trkpt lat="45.96613" lon="4.54846">
        <ele>369</ele>
        <time>2021-12-28T15:42:11Z</time>
      </trkpt>
      <trkpt lat="45.96623" lon="4.54853">
        <ele>371</ele>
        <time>2021-12-28T15:42:26Z</time>
      </trkpt>
      <trkpt lat="45.96647" lon="4.54852">
        <ele>371</ele>
        <time>2021-12-28T15:42:58Z</time>
      </trkpt>
      <trkpt lat="45.96682" lon="4.54844">
        <ele>367</ele>
        <time>2021-12-28T15:43:46Z</time>
      </trkpt>
      <trkpt lat="45.96724" lon="4.54849">
        <ele>368</ele>
        <time>2021-12-28T15:44:42Z</time>
      </trkpt>
      <trkpt lat="45.96744" lon="4.54849">
        <ele>368</ele>
        <time>2021-12-28T15:45:09Z</time>
      </trkpt>
      <trkpt lat="45.96778" lon="4.54859">
        <ele>371</ele>
        <time>2021-12-28T15:45:55Z</time>
      </trkpt>
      <trkpt lat="45.96798" lon="4.5489">
        <ele>375</ele>
        <time>2021-12-28T15:46:34Z</time>
      </trkpt>
      <trkpt lat="45.96827" lon="4.54919">
        <ele>374</ele>
        <time>2021-12-28T15:47:21Z</time>
      </trkpt>
      <trkpt lat="45.96838" lon="4.54927">
        <ele>374</ele>
        <time>2021-12-28T15:47:38Z</time>
      </trkpt>
      <trkpt lat="45.9685" lon="4.54941">
        <ele>377</ele>
        <time>2021-12-28T15:47:58Z</time>
      </trkpt>
      <trkpt lat="45.96878" lon="4.5496">
        <ele>378</ele>
        <time>2021-12-28T15:48:40Z</time>
      </trkpt>
      <trkpt lat="45.96916" lon="4.54973">
        <ele>375</ele>
        <time>2021-12-28T15:49:32Z</time>
      </trkpt>
      <trkpt lat="45.96926" lon="4.54987">
        <ele>376</ele>
        <time>2021-12-28T15:49:50Z</time>
      </trkpt>
      <trkpt lat="45.96928" lon="4.54996">
        <ele>376</ele>
        <time>2021-12-28T15:49:59Z</time>
      </trkpt>
      <trkpt lat="45.9693" lon="4.55015">
        <ele>379</ele>
        <time>2021-12-28T15:50:17Z</time>
      </trkpt>
      <trkpt lat="45.96925" lon="4.5504">
        <ele>383</ele>
        <time>2021-12-28T15:50:41Z</time>
      </trkpt>
      <trkpt lat="45.96927" lon="4.55042">
        <ele>383</ele>
        <time>2021-12-28T15:50:44Z</time>
      </trkpt>
      <trkpt lat="45.96939" lon="4.55042">
        <ele>383</ele>
        <time>2021-12-28T15:51:00Z</time>
      </trkpt>
      <trkpt lat="45.96955" lon="4.55035">
        <ele>382</ele>
        <time>2021-12-28T15:51:23Z</time>
      </trkpt>
      <trkpt lat="45.96978" lon="4.5503">
        <ele>381</ele>
        <time>2021-12-28T15:51:54Z</time>
      </trkpt>
      <trkpt lat="45.97063" lon="4.55025">
        <ele>384</ele>
        <time>2021-12-28T15:53:47Z</time>
      </trkpt>
      <trkpt lat="45.97087" lon="4.55017">
        <ele>385</ele>
        <time>2021-12-28T15:54:20Z</time>
      </trkpt>
      <trkpt lat="45.97077" lon="4.55037">
        <ele>388</ele>
        <time>2021-12-28T15:54:43Z</time>
      </trkpt>
      <trkpt lat="45.97051" lon="4.55063">
        <ele>391</ele>
        <time>2021-12-28T15:55:25Z</time>
      </trkpt>
      <trkpt lat="45.96979" lon="4.55114">
        <ele>400</ele>
        <time>2021-12-28T15:57:12Z</time>
      </trkpt>
      <trkpt lat="45.96942" lon="4.55151">
        <ele>407</ele>
        <time>2021-12-28T15:58:12Z</time>
      </trkpt>
      <trkpt lat="45.96926" lon="4.55174">
        <ele>411</ele>
        <time>2021-12-28T15:58:43Z</time>
      </trkpt>
      <trkpt lat="45.96913" lon="4.55196">
        <ele>415</ele>
        <time>2021-12-28T15:59:09Z</time>
      </trkpt>
      <trkpt lat="45.96899" lon="4.55232">
        <ele>423</ele>
        <time>2021-12-28T15:59:48Z</time>
      </trkpt>
      <trkpt lat="45.96881" lon="4.55261">
        <ele>429</ele>
        <time>2021-12-28T16:00:24Z</time>
      </trkpt>
      <trkpt lat="45.96863" lon="4.55279">
        <ele>433</ele>
        <time>2021-12-28T16:00:53Z</time>
      </trkpt>
      <trkpt lat="45.96817" lon="4.553">
        <ele>435</ele>
        <time>2021-12-28T16:01:57Z</time>
      </trkpt>
      <trkpt lat="45.96799" lon="4.55312">
        <ele>436</ele>
        <time>2021-12-28T16:02:24Z</time>
      </trkpt>
      <trkpt lat="45.96779" lon="4.55343">
        <ele>441</ele>
        <time>2021-12-28T16:03:03Z</time>
      </trkpt>
      <trkpt lat="45.96753" lon="4.55416">
        <ele>452</ele>
        <time>2021-12-28T16:04:19Z</time>
      </trkpt>
      <trkpt lat="45.96746" lon="4.55461">
        <ele>459</ele>
        <time>2021-12-28T16:05:02Z</time>
      </trkpt>
      <trkpt lat="45.96726" lon="4.55517">
        <ele>467</ele>
        <time>2021-12-28T16:06:00Z</time>
      </trkpt>
      <trkpt lat="45.96708" lon="4.55559">
        <ele>473</ele>
        <time>2021-12-28T16:06:46Z</time>
      </trkpt>
      <trkpt lat="45.96705" lon="4.55581">
        <ele>478</ele>
        <time>2021-12-28T16:07:07Z</time>
      </trkpt>
      <trkpt lat="45.96701" lon="4.55593">
        <ele>480</ele>
        <time>2021-12-28T16:07:19Z</time>
      </trkpt>
      <trkpt lat="45.96693" lon="4.55594">
        <ele>479</ele>
        <time>2021-12-28T16:07:30Z</time>
      </trkpt>
      <trkpt lat="45.96682" lon="4.55582">
        <ele>475</ele>
        <time>2021-12-28T16:07:48Z</time>
      </trkpt>
      <trkpt lat="45.96661" lon="4.55576">
        <ele>472</ele>
        <time>2021-12-28T16:08:17Z</time>
      </trkpt>
      <trkpt lat="45.96649" lon="4.5558">
        <ele>473</ele>
        <time>2021-12-28T16:08:33Z</time>
      </trkpt>
      <trkpt lat="45.96632" lon="4.55601">
        <ele>477</ele>
        <time>2021-12-28T16:09:03Z</time>
      </trkpt>
      <trkpt lat="45.96604" lon="4.55615">
        <ele>480</ele>
        <time>2021-12-28T16:09:43Z</time>
      </trkpt>
      <trkpt lat="45.96564" lon="4.55595">
        <ele>478</ele>
        <time>2021-12-28T16:10:39Z</time>
      </trkpt>
      <trkpt lat="45.96517" lon="4.55587">
        <ele>482</ele>
        <time>2021-12-28T16:11:42Z</time>
      </trkpt>
      <trkpt lat="45.96484" lon="4.5557">
        <ele>485</ele>
        <time>2021-12-28T16:12:29Z</time>
      </trkpt>
      <trkpt lat="45.96465" lon="4.55552">
        <ele>486</ele>
        <time>2021-12-28T16:13:00Z</time>
      </trkpt>
      <trkpt lat="45.96456" lon="4.55549">
        <ele>486</ele>
        <time>2021-12-28T16:13:12Z</time>
      </trkpt>
      <trkpt lat="45.96447" lon="4.55554">
        <ele>487</ele>
        <time>2021-12-28T16:13:25Z</time>
      </trkpt>
      <trkpt lat="45.96418" lon="4.55573">
        <ele>489</ele>
        <time>2021-12-28T16:14:07Z</time>
      </trkpt>
      <trkpt lat="45.96401" lon="4.55579">
        <ele>488</ele>
        <time>2021-12-28T16:14:31Z</time>
      </trkpt>
      <trkpt lat="45.96378" lon="4.55583">
        <ele>487</ele>
        <time>2021-12-28T16:15:02Z</time>
      </trkpt>
      <trkpt lat="45.96365" lon="4.55578">
        <ele>486</ele>
        <time>2021-12-28T16:15:20Z</time>
      </trkpt>
      <trkpt lat="45.96374" lon="4.5559">
        <ele>487</ele>
        <time>2021-12-28T16:15:36Z</time>
      </trkpt>
      <trkpt lat="45.96381" lon="4.55603">
        <ele>488</ele>
        <time>2021-12-28T16:15:51Z</time>
      </trkpt>
      <trkpt lat="45.96394" lon="4.55639">
        <ele>492</ele>
        <time>2021-12-28T16:16:29Z</time>
      </trkpt>
      <trkpt lat="45.96423" lon="4.55701">
        <ele>500</ele>
        <time>2021-12-28T16:17:38Z</time>
      </trkpt>
      <trkpt lat="45.96428" lon="4.55716">
        <ele>503</ele>
        <time>2021-12-28T16:17:54Z</time>
      </trkpt>
      <trkpt lat="45.96442" lon="4.5574">
        <ele>507</ele>
        <time>2021-12-28T16:18:23Z</time>
      </trkpt>
      <trkpt lat="45.96462" lon="4.55765">
        <ele>512</ele>
        <time>2021-12-28T16:18:58Z</time>
      </trkpt>
      <trkpt lat="45.96479" lon="4.55781">
        <ele>516</ele>
        <time>2021-12-28T16:19:25Z</time>
      </trkpt>
      <trkpt lat="45.96494" lon="4.55802">
        <ele>521</ele>
        <time>2021-12-28T16:19:53Z</time>
      </trkpt>
      <trkpt lat="45.96497" lon="4.55811">
        <ele>522</ele>
        <time>2021-12-28T16:20:02Z</time>
      </trkpt>
      <trkpt lat="45.96496" lon="4.55822">
        <ele>524</ele>
        <time>2021-12-28T16:20:13Z</time>
      </trkpt>
      <trkpt lat="45.9649" lon="4.5584">
        <ele>525</ele>
        <time>2021-12-28T16:20:31Z</time>
      </trkpt>
      <trkpt lat="45.96489" lon="4.55849">
        <ele>526</ele>
        <time>2021-12-28T16:20:40Z</time>
      </trkpt>
      <trkpt lat="45.96492" lon="4.55854">
        <ele>527</ele>
        <time>2021-12-28T16:20:46Z</time>
      </trkpt>
      <trkpt lat="45.96516" lon="4.5588">
        <ele>533</ele>
        <time>2021-12-28T16:21:26Z</time>
      </trkpt>
      <trkpt lat="45.96523" lon="4.55889">
        <ele>535</ele>
        <time>2021-12-28T16:21:38Z</time>
      </trkpt>
      <trkpt lat="45.96526" lon="4.55903">
        <ele>537</ele>
        <time>2021-12-28T16:21:52Z</time>
      </trkpt>
      <trkpt lat="45.96527" lon="4.55918">
        <ele>540</ele>
        <time>2021-12-28T16:22:06Z</time>
      </trkpt>
      <trkpt lat="45.9653" lon="4.55929">
        <ele>541</ele>
        <time>2021-12-28T16:22:17Z</time>
      </trkpt>
      <trkpt lat="45.96549" lon="4.55956">
        <ele>546</ele>
        <time>2021-12-28T16:22:52Z</time>
      </trkpt>
      <trkpt lat="45.96596" lon="4.56045">
        <ele>557</ele>
        <time>2021-12-28T16:24:36Z</time>
      </trkpt>
      <trkpt lat="45.96603" lon="4.56047">
        <ele>558</ele>
        <time>2021-12-28T16:24:46Z</time>
      </trkpt>
      <trkpt lat="45.96617" lon="4.56061">
        <ele>559</ele>
        <time>2021-12-28T16:25:08Z</time>
      </trkpt>
      <trkpt lat="45.96632" lon="4.56083">
        <ele>561</ele>
        <time>2021-12-28T16:25:37Z</time>
      </trkpt>
      <trkpt lat="45.96648" lon="4.56112">
        <ele>562</ele>
        <time>2021-12-28T16:26:11Z</time>
      </trkpt>
      <trkpt lat="45.96685" lon="4.56208">
        <ele>562</ele>
        <time>2021-12-28T16:27:53Z</time>
      </trkpt>
      <trkpt lat="45.96688" lon="4.56213">
        <ele>561</ele>
        <time>2021-12-28T16:27:59Z</time>
      </trkpt>
      <trkpt lat="45.96746" lon="4.56259">
        <ele>560</ele>
        <time>2021-12-28T16:29:28Z</time>
      </trkpt>
      <trkpt lat="45.96794" lon="4.56303">
        <ele>555</ele>
        <time>2021-12-28T16:30:44Z</time>
      </trkpt>
      <trkpt lat="45.96812" lon="4.56328">
        <ele>554</ele>
        <time>2021-12-28T16:31:17Z</time>
      </trkpt>
      <trkpt lat="45.96822" lon="4.56346">
        <ele>554</ele>
        <time>2021-12-28T16:31:38Z</time>
      </trkpt>
      <trkpt lat="45.96896" lon="4.56373">
        <ele>551</ele>
        <time>2021-12-28T16:33:20Z</time>
      </trkpt>
      <trkpt lat="45.96923" lon="4.56387">
        <ele>551</ele>
        <time>2021-12-28T16:33:59Z</time>
      </trkpt>
      <trkpt lat="45.96986" lon="4.56445">
        <ele>552</ele>
        <time>2021-12-28T16:35:38Z</time>
      </trkpt>
      <trkpt lat="45.97009" lon="4.56457">
        <ele>552</ele>
        <time>2021-12-28T16:36:11Z</time>
      </trkpt>
      <trkpt lat="45.97033" lon="4.56466">
        <ele>554</ele>
        <time>2021-12-28T16:36:44Z</time>
      </trkpt>
      <trkpt lat="45.97054" lon="4.56467">
        <ele>554</ele>
        <time>2021-12-28T16:37:12Z</time>
      </trkpt>
      <trkpt lat="45.97075" lon="4.56465">
        <ele>555</ele>
        <time>2021-12-28T16:37:40Z</time>
      </trkpt>
      <trkpt lat="45.9716" lon="4.56447">
        <ele>557</ele>
        <time>2021-12-28T16:39:35Z</time>
      </trkpt>
      <trkpt lat="45.97254" lon="4.56407">
        <ele>562</ele>
        <time>2021-12-28T16:41:46Z</time>
      </trkpt>
      <trkpt lat="45.97329" lon="4.56362">
        <ele>568</ele>
        <time>2021-12-28T16:43:34Z</time>
      </trkpt>
      <trkpt lat="45.97349" lon="4.56353">
        <ele>569</ele>
        <time>2021-12-28T16:44:02Z</time>
      </trkpt>
      <trkpt lat="45.9737" lon="4.56346">
        <ele>571</ele>
        <time>2021-12-28T16:44:31Z</time>
      </trkpt>
      <trkpt lat="45.97406" lon="4.56339">
        <ele>573</ele>
        <time>2021-12-28T16:45:19Z</time>
      </trkpt>
      <trkpt lat="45.97424" lon="4.56338">
        <ele>575</ele>
        <time>2021-12-28T16:45:43Z</time>
      </trkpt>
      <trkpt lat="45.97441" lon="4.5634">
        <ele>576</ele>
        <time>2021-12-28T16:46:06Z</time>
      </trkpt>
      <trkpt lat="45.97494" lon="4.5632">
        <ele>577</ele>
        <time>2021-12-28T16:47:19Z</time>
      </trkpt>
      <trkpt lat="45.97536" lon="4.56297">
        <ele>576</ele>
        <time>2021-12-28T16:48:19Z</time>
      </trkpt>
      <trkpt lat="45.97627" lon="4.56259">
        <ele>573</ele>
        <time>2021-12-28T16:50:26Z</time>
      </trkpt>
      <trkpt lat="45.97637" lon="4.56258">
        <ele>572</ele>
        <time>2021-12-28T16:50:39Z</time>
      </trkpt>
      <trkpt lat="45.97655" lon="4.56262">
        <ele>573</ele>
        <time>2021-12-28T16:51:03Z</time>
      </trkpt>
      <trkpt lat="45.97721" lon="4.56305">
        <ele>579</ele>
        <time>2021-12-28T16:52:40Z</time>
      </trkpt>
      <trkpt lat="45.97759" lon="4.56323">
        <ele>581</ele>
        <time>2021-12-28T16:53:33Z</time>
      </trkpt>
      <trkpt lat="45.97797" lon="4.56323">
        <ele>586</ele>
        <time>2021-12-28T16:54:24Z</time>
      </trkpt>
      <trkpt lat="45.97829" lon="4.56308">
        <ele>585</ele>
        <time>2021-12-28T16:55:09Z</time>
      </trkpt>
      <trkpt lat="45.97882" lon="4.56239">
        <ele>578</ele>
        <time>2021-12-28T16:56:44Z</time>
      </trkpt>
      <trkpt lat="45.97914" lon="4.56209">
        <ele>577</ele>
        <time>2021-12-28T16:57:35Z</time>
      </trkpt>
      <trkpt lat="45.97941" lon="4.56196">
        <ele>578</ele>
        <time>2021-12-28T16:58:13Z</time>
      </trkpt>
      <trkpt lat="45.97977" lon="4.56188">
        <ele>582</ele>
        <time>2021-12-28T16:59:02Z</time>
      </trkpt>
      <trkpt lat="45.98009" lon="4.56156">
        <ele>583</ele>
        <time>2021-12-28T16:59:54Z</time>
      </trkpt>
      <trkpt lat="45.9803" lon="4.56127">
        <ele>588</ele>
        <time>2021-12-28T17:00:33Z</time>
      </trkpt>
      <trkpt lat="45.98035" lon="4.56106">
        <ele>588</ele>
        <time>2021-12-28T17:00:53Z</time>
      </trkpt>
      <trkpt lat="45.98032" lon="4.56077">
        <ele>583</ele>
        <time>2021-12-28T17:01:21Z</time>
      </trkpt>
      <trkpt lat="45.98035" lon="4.56054">
        <ele>582</ele>
        <time>2021-12-28T17:01:42Z</time>
      </trkpt>
      <trkpt lat="45.98047" lon="4.56021">
        <ele>583</ele>
        <time>2021-12-28T17:02:17Z</time>
      </trkpt>
      <trkpt lat="45.98073" lon="4.55981">
        <ele>586</ele>
        <time>2021-12-28T17:03:08Z</time>
      </trkpt>
      <trkpt lat="45.98096" lon="4.5596">
        <ele>588</ele>
        <time>2021-12-28T17:03:44Z</time>
      </trkpt>
      <trkpt lat="45.98119" lon="4.55945">
        <ele>588</ele>
        <time>2021-12-28T17:04:18Z</time>
      </trkpt>
      <trkpt lat="45.98154" lon="4.55931">
        <ele>588</ele>
        <time>2021-12-28T17:05:06Z</time>
      </trkpt>
      <trkpt lat="45.9818" lon="4.55932">
        <ele>588</ele>
        <time>2021-12-28T17:05:41Z</time>
      </trkpt>
      <trkpt lat="45.98211" lon="4.5594">
        <ele>589</ele>
        <time>2021-12-28T17:06:23Z</time>
      </trkpt>
      <trkpt lat="45.98317" lon="4.55978">
        <ele>591</ele>
        <time>2021-12-28T17:08:49Z</time>
      </trkpt>
      <trkpt lat="45.98332" lon="4.55986">
        <ele>591</ele>
        <time>2021-12-28T17:09:10Z</time>
      </trkpt>
      <trkpt lat="45.98344" lon="4.5599">
        <ele>593</ele>
        <time>2021-12-28T17:09:26Z</time>
      </trkpt>
      <trkpt lat="45.9835" lon="4.55986">
        <ele>594</ele>
        <time>2021-12-28T17:09:35Z</time>
      </trkpt>
      <trkpt lat="45.9836" lon="4.55976">
        <ele>593</ele>
        <time>2021-12-28T17:09:52Z</time>
      </trkpt>
      <trkpt lat="45.98389" lon="4.55933">
        <ele>590</ele>
        <time>2021-12-28T17:10:47Z</time>
      </trkpt>
      <trkpt lat="45.98408" lon="4.5592">
        <ele>592</ele>
        <time>2021-12-28T17:11:15Z</time>
      </trkpt>
      <trkpt lat="45.98424" lon="4.55922">
        <ele>594</ele>
        <time>2021-12-28T17:11:37Z</time>
      </trkpt>
      <trkpt lat="45.9844" lon="4.55933">
        <ele>596</ele>
        <time>2021-12-28T17:12:00Z</time>
      </trkpt>
      <trkpt lat="45.98456" lon="4.55948">
        <ele>599</ele>
        <time>2021-12-28T17:12:26Z</time>
      </trkpt>
      <trkpt lat="45.98497" lon="4.55995">
        <ele>609</ele>
        <time>2021-12-28T17:13:36Z</time>
      </trkpt>
      <trkpt lat="45.98513" lon="4.5601">
        <ele>614</ele>
        <time>2021-12-28T17:14:01Z</time>
      </trkpt>
      <trkpt lat="45.98523" lon="4.56017">
        <ele>618</ele>
        <time>2021-12-28T17:14:16Z</time>
      </trkpt>
      <trkpt lat="45.98528" lon="4.56015">
        <ele>618</ele>
        <time>2021-12-28T17:14:23Z</time>
      </trkpt>
      <trkpt lat="45.9854" lon="4.55995">
        <ele>617</ele>
        <time>2021-12-28T17:14:47Z</time>
      </trkpt>
      <trkpt lat="45.98547" lon="4.55971">
        <ele>614</ele>
        <time>2021-12-28T17:15:12Z</time>
      </trkpt>
      <trkpt lat="45.98561" lon="4.55944">
        <ele>612</ele>
        <time>2021-12-28T17:15:43Z</time>
      </trkpt>
      <trkpt lat="45.98578" lon="4.55923">
        <ele>612</ele>
        <time>2021-12-28T17:16:13Z</time>
      </trkpt>
      <trkpt lat="45.98615" lon="4.55893">
        <ele>612</ele>
        <time>2021-12-28T17:17:09Z</time>
      </trkpt>
      <trkpt lat="45.9864" lon="4.5589">
        <ele>614</ele>
        <time>2021-12-28T17:17:43Z</time>
      </trkpt>
      <trkpt lat="45.98686" lon="4.55903">
        <ele>619</ele>
        <time>2021-12-28T17:18:45Z</time>
      </trkpt>
      <trkpt lat="45.98746" lon="4.5597">
        <ele>628</ele>
        <time>2021-12-28T17:20:27Z</time>
      </trkpt>
      <trkpt lat="45.98768" lon="4.56002">
        <ele>630</ele>
        <time>2021-12-28T17:21:08Z</time>
      </trkpt>
      <trkpt lat="45.98812" lon="4.56058">
        <ele>634</ele>
        <time>2021-12-28T17:22:27Z</time>
      </trkpt>
      <trkpt lat="45.98843" lon="4.56102">
        <ele>640</ele>
        <time>2021-12-28T17:23:25Z</time>
      </trkpt>
      <trkpt lat="45.98887" lon="4.56149">
        <ele>650</ele>
        <time>2021-12-28T17:24:38Z</time>
      </trkpt>
      <trkpt lat="45.989" lon="4.56151">
        <ele>651</ele>
        <time>2021-12-28T17:24:56Z</time>
      </trkpt>
      <trkpt lat="45.9891" lon="4.56145">
        <ele>649</ele>
        <time>2021-12-28T17:25:10Z</time>
      </trkpt>
      <trkpt lat="45.98923" lon="4.56124">
        <ele>647</ele>
        <time>2021-12-28T17:25:36Z</time>
      </trkpt>
      <trkpt lat="45.98931" lon="4.56118">
        <ele>648</ele>
        <time>2021-12-28T17:25:48Z</time>
      </trkpt>
      <trkpt lat="45.98939" lon="4.56116">
        <ele>649</ele>
        <time>2021-12-28T17:25:59Z</time>
      </trkpt>
      <trkpt lat="45.98952" lon="4.56118">
        <ele>653</ele>
        <time>2021-12-28T17:26:16Z</time>
      </trkpt>
      <trkpt lat="45.98963" lon="4.56117">
        <ele>655</ele>
        <time>2021-12-28T17:26:31Z</time>
      </trkpt>
      <trkpt lat="45.98979" lon="4.56113">
        <ele>658</ele>
        <time>2021-12-28T17:26:53Z</time>
      </trkpt>
      <trkpt lat="45.99003" lon="4.56109">
        <ele>662</ele>
        <time>2021-12-28T17:27:25Z</time>
      </trkpt>
      <trkpt lat="45.99024" lon="4.56101">
        <ele>665</ele>
        <time>2021-12-28T17:27:54Z</time>
      </trkpt>
      <trkpt lat="45.99029" lon="4.56101">
        <ele>666</ele>
        <time>2021-12-28T17:28:01Z</time>
      </trkpt>
      <trkpt lat="45.99033" lon="4.56104">
        <ele>668</ele>
        <time>2021-12-28T17:28:07Z</time>
      </trkpt>
      <trkpt lat="45.99047" lon="4.56099">
        <ele>670</ele>
        <time>2021-12-28T17:28:26Z</time>
      </trkpt>
      <trkpt lat="45.99065" lon="4.56074">
        <ele>670</ele>
        <time>2021-12-28T17:28:59Z</time>
      </trkpt>
      <trkpt lat="45.99089" lon="4.56048">
        <ele>674</ele>
        <time>2021-12-28T17:29:39Z</time>
      </trkpt>
      <trkpt lat="45.99096" lon="4.56036">
        <ele>675</ele>
        <time>2021-12-28T17:29:54Z</time>
      </trkpt>
      <trkpt lat="45.991" lon="4.56024">
        <ele>675</ele>
        <time>2021-12-28T17:30:06Z</time>
      </trkpt>
      <trkpt lat="45.99102" lon="4.56001">
        <ele>674</ele>
        <time>2021-12-28T17:30:28Z</time>
      </trkpt>
      <trkpt lat="45.99098" lon="4.55953">
        <ele>673</ele>
        <time>2021-12-28T17:31:13Z</time>
      </trkpt>
      <trkpt lat="45.991" lon="4.5594">
        <ele>673</ele>
        <time>2021-12-28T17:31:25Z</time>
      </trkpt>
      <trkpt lat="45.99105" lon="4.55928">
        <ele>673</ele>
        <time>2021-12-28T17:31:38Z</time>
      </trkpt>
      <trkpt lat="45.99111" lon="4.55924">
        <ele>674</ele>
        <time>2021-12-28T17:31:47Z</time>
      </trkpt>
      <trkpt lat="45.99124" lon="4.55923">
        <ele>675</ele>
        <time>2021-12-28T17:32:04Z</time>
      </trkpt>
      <trkpt lat="45.9913" lon="4.55919">
        <ele>675</ele>
        <time>2021-12-28T17:32:13Z</time>
      </trkpt>
      <trkpt lat="45.99147" lon="4.55919">
        <ele>676</ele>
        <time>2021-12-28T17:32:36Z</time>
      </trkpt>
      <trkpt lat="45.99179" lon="4.55929">
        <ele>678</ele>
        <time>2021-12-28T17:33:19Z</time>
      </trkpt>
      <trkpt lat="45.99207" lon="4.55929">
        <ele>676</ele>
        <time>2021-12-28T17:33:57Z</time>
      </trkpt>
      <trkpt lat="45.99229" lon="4.55935">
        <ele>676</ele>
        <time>2021-12-28T17:34:27Z</time>
      </trkpt>
      <trkpt lat="45.99244" lon="4.55943">
        <ele>678</ele>
        <time>2021-12-28T17:34:48Z</time>
      </trkpt>
      <trkpt lat="45.99263" lon="4.55948">
        <ele>679</ele>
        <time>2021-12-28T17:35:14Z</time>
      </trkpt>
      <trkpt lat="45.99287" lon="4.55944">
        <ele>680</ele>
        <time>2021-12-28T17:35:46Z</time>
      </trkpt>
      <trkpt lat="45.99294" lon="4.55945">
        <ele>680</ele>
        <time>2021-12-28T17:35:55Z</time>
      </trkpt>
      <trkpt lat="45.99301" lon="4.55941">
        <ele>680</ele>
        <time>2021-12-28T17:36:05Z</time>
      </trkpt>
      <trkpt lat="45.99331" lon="4.55936">
        <ele>681</ele>
        <time>2021-12-28T17:36:46Z</time>
      </trkpt>
      <trkpt lat="45.99338" lon="4.55929">
        <ele>682</ele>
        <time>2021-12-28T17:36:57Z</time>
      </trkpt>
      <trkpt lat="45.99341" lon="4.55918">
        <ele>681</ele>
        <time>2021-12-28T17:37:08Z</time>
      </trkpt>
      <trkpt lat="45.99338" lon="4.55903">
        <ele>679</ele>
        <time>2021-12-28T17:37:22Z</time>
      </trkpt>
      <trkpt lat="45.99318" lon="4.55842">
        <ele>671</ele>
        <time>2021-12-28T17:38:25Z</time>
      </trkpt>
      <trkpt lat="45.99315" lon="4.5581">
        <ele>667</ele>
        <time>2021-12-28T17:38:55Z</time>
      </trkpt>
      <trkpt lat="45.99318" lon="4.55788">
        <ele>665</ele>
        <time>2021-12-28T17:39:16Z</time>
      </trkpt>
      <trkpt lat="45.99327" lon="4.55772">
        <ele>665</ele>
        <time>2021-12-28T17:39:35Z</time>
      </trkpt>
      <trkpt lat="45.99343" lon="4.55761">
        <ele>666</ele>
        <time>2021-12-28T17:39:58Z</time>
      </trkpt>
      <trkpt lat="45.99366" lon="4.5575">
        <ele>666</ele>
        <time>2021-12-28T17:40:31Z</time>
      </trkpt>
      <trkpt lat="45.99404" lon="4.5574">
        <ele>666</ele>
        <time>2021-12-28T17:41:22Z</time>
      </trkpt>
      <trkpt lat="45.99432" lon="4.55739">
        <ele>670</ele>
        <time>2021-12-28T17:42:00Z</time>
      </trkpt>
      <trkpt lat="45.99451" lon="4.55742">
        <ele>674</ele>
        <time>2021-12-28T17:42:25Z</time>
      </trkpt>
      <trkpt lat="45.99459" lon="4.55733">
        <ele>675</ele>
        <time>2021-12-28T17:42:39Z</time>
      </trkpt>
      <trkpt lat="45.99457" lon="4.55665">
        <ele>665</ele>
        <time>2021-12-28T17:43:42Z</time>
      </trkpt>
      <trkpt lat="45.99449" lon="4.55614">
        <ele>658</ele>
        <time>2021-12-28T17:44:30Z</time>
      </trkpt>
      <trkpt lat="45.99447" lon="4.55592">
        <ele>655</ele>
        <time>2021-12-28T17:44:51Z</time>
      </trkpt>
      <trkpt lat="45.9945" lon="4.5557">
        <ele>654</ele>
        <time>2021-12-28T17:45:12Z</time>
      </trkpt>
      <trkpt lat="45.99467" lon="4.55507">
        <ele>654</ele>
        <time>2021-12-28T17:46:14Z</time>
      </trkpt>
      <trkpt lat="45.99491" lon="4.5539">
        <ele>649</ele>
        <time>2021-12-28T17:48:07Z</time>
      </trkpt>
      <trkpt lat="45.99501" lon="4.55366">
        <ele>648</ele>
        <time>2021-12-28T17:48:33Z</time>
      </trkpt>
      <trkpt lat="45.99512" lon="4.55349">
        <ele>647</ele>
        <time>2021-12-28T17:48:55Z</time>
      </trkpt>
      <trkpt lat="45.99534" lon="4.55327">
        <ele>646</ele>
        <time>2021-12-28T17:49:31Z</time>
      </trkpt>
      <trkpt lat="45.9957" lon="4.55313">
        <ele>649</ele>
        <time>2021-12-28T17:50:20Z</time>
      </trkpt>
      <trkpt lat="45.99589" lon="4.55315">
        <ele>652</ele>
        <time>2021-12-28T17:50:46Z</time>
      </trkpt>
      <trkpt lat="45.99633" lon="4.55329">
        <ele>662</ele>
        <time>2021-12-28T17:51:46Z</time>
      </trkpt>
      <trkpt lat="45.9964" lon="4.55323">
        <ele>662</ele>
        <time>2021-12-28T17:51:57Z</time>
      </trkpt>
      <trkpt lat="45.99662" lon="4.55277">
        <ele>656</ele>
        <time>2021-12-28T17:52:49Z</time>
      </trkpt>
      <trkpt lat="45.99693" lon="4.55244">
        <ele>658</ele>
        <time>2021-12-28T17:53:40Z</time>
      </trkpt>
      <trkpt lat="45.99711" lon="4.55221">
        <ele>659</ele>
        <time>2021-12-28T17:54:12Z</time>
      </trkpt>
      <trkpt lat="45.99734" lon="4.55186">
        <ele>660</ele>
        <time>2021-12-28T17:54:57Z</time>
      </trkpt>
      <trkpt lat="45.99744" lon="4.55164">
        <ele>660</ele>
        <time>2021-12-28T17:55:21Z</time>
      </trkpt>
      <trkpt lat="45.99763" lon="4.55132">
        <ele>661</ele>
        <time>2021-12-28T17:56:00Z</time>
      </trkpt>
      <trkpt lat="45.99772" lon="4.55111">
        <ele>661</ele>
        <time>2021-12-28T17:56:23Z</time>
      </trkpt>
      <trkpt lat="45.99777" lon="4.55069">
        <ele>660</ele>
        <time>2021-12-28T17:57:03Z</time>
      </trkpt>
      <trkpt lat="45.99784" lon="4.54958">
        <ele>670</ele>
        <time>2021-12-28T17:58:46Z</time>
      </trkpt>
      <trkpt lat="45.99793" lon="4.54892">
        <ele>677</ele>
        <time>2021-12-28T17:59:48Z</time>
      </trkpt>
      <trkpt lat="45.99791" lon="4.54873">
        <ele>677</ele>
        <time>2021-12-28T18:00:06Z</time>
      </trkpt>
      <trkpt lat="45.99781" lon="4.54867">
        <ele>674</ele>
        <time>2021-12-28T18:00:21Z</time>
      </trkpt>
      <trkpt lat="45.99778" lon="4.54858">
        <ele>674</ele>
        <time>2021-12-28T18:00:30Z</time>
      </trkpt>
      <trkpt lat="45.9978" lon="4.54845">
        <ele>675</ele>
        <time>2021-12-28T18:00:42Z</time>
      </trkpt>
      <trkpt lat="45.99798" lon="4.54808">
        <ele>679</ele>
        <time>2021-12-28T18:01:24Z</time>
      </trkpt>
      <trkpt lat="45.99814" lon="4.54781">
        <ele>684</ele>
        <time>2021-12-28T18:01:57Z</time>
      </trkpt>
      <trkpt lat="45.99827" lon="4.54718">
        <ele>688</ele>
        <time>2021-12-28T18:02:58Z</time>
      </trkpt>
      <trkpt lat="45.9984" lon="4.54611">
        <ele>695</ele>
        <time>2021-12-28T18:04:39Z</time>
      </trkpt>
      <trkpt lat="45.99845" lon="4.54593">
        <ele>696</ele>
        <time>2021-12-28T18:04:57Z</time>
      </trkpt>
      <trkpt lat="45.9985" lon="4.54585">
        <ele>697</ele>
        <time>2021-12-28T18:05:07Z</time>
      </trkpt>
      <trkpt lat="45.99856" lon="4.54593">
        <ele>697</ele>
        <time>2021-12-28T18:05:17Z</time>
      </trkpt>
      <trkpt lat="45.99856" lon="4.54593">
        <ele>697</ele>
        <time>2021-12-28T18:05:17Z</time>
      </trkpt>
      <trkpt lat="45.9987" lon="4.54561">
        <ele>698</ele>
        <time>2021-12-28T18:05:53Z</time>
      </trkpt>
      <trkpt lat="45.99917" lon="4.54521">
        <ele>690</ele>
        <time>2021-12-28T18:07:05Z</time>
      </trkpt>
      <trkpt lat="45.99971" lon="4.54502">
        <ele>685</ele>
        <time>2021-12-28T18:08:20Z</time>
      </trkpt>
      <trkpt lat="46.00004" lon="4.54473">
        <ele>674</ele>
        <time>2021-12-28T18:09:11Z</time>
      </trkpt>
      <trkpt lat="46.00031" lon="4.54461">
        <ele>672</ele>
        <time>2021-12-28T18:09:49Z</time>
      </trkpt>
      <trkpt lat="46.00088" lon="4.54427">
        <ele>667</ele>
        <time>2021-12-28T18:11:11Z</time>
      </trkpt>
      <trkpt lat="46.00101" lon="4.54427">
        <ele>671</ele>
        <time>2021-12-28T18:11:29Z</time>
      </trkpt>
      <trkpt lat="46.00117" lon="4.54395">
        <ele>668</ele>
        <time>2021-12-28T18:12:05Z</time>
      </trkpt>
      <trkpt lat="46.00123" lon="4.54364">
        <ele>663</ele>
        <time>2021-12-28T18:12:35Z</time>
      </trkpt>
      <trkpt lat="46.00131" lon="4.54342">
        <ele>661</ele>
        <time>2021-12-28T18:12:58Z</time>
      </trkpt>
      <trkpt lat="46.00132" lon="4.5432">
        <ele>657</ele>
        <time>2021-12-28T18:13:18Z</time>
      </trkpt>
      <trkpt lat="46.00136" lon="4.54302">
        <ele>655</ele>
        <time>2021-12-28T18:13:36Z</time>
      </trkpt>
      <trkpt lat="46.00178" lon="4.54184">
        <ele>643</ele>
        <time>2021-12-28T18:15:39Z</time>
      </trkpt>
      <trkpt lat="46.0019" lon="4.54138">
        <ele>634</ele>
        <time>2021-12-28T18:16:24Z</time>
      </trkpt>
      <trkpt lat="46.00177" lon="4.54141">
        <ele>631</ele>
        <time>2021-12-28T18:16:42Z</time>
      </trkpt>
      <trkpt lat="46.00165" lon="4.54153">
        <ele>631</ele>
        <time>2021-12-28T18:17:01Z</time>
      </trkpt>
      <trkpt lat="46.00119" lon="4.54187">
        <ele>625</ele>
        <time>2021-12-28T18:18:10Z</time>
      </trkpt>
      <trkpt lat="46.00115" lon="4.54186">
        <ele>623</ele>
        <time>2021-12-28T18:18:16Z</time>
      </trkpt>
      <trkpt lat="46.00099" lon="4.5419">
        <ele>619</ele>
        <time>2021-12-28T18:18:38Z</time>
      </trkpt>
      <trkpt lat="46.00073" lon="4.54207">
        <ele>618</ele>
        <time>2021-12-28T18:19:16Z</time>
      </trkpt>
      <trkpt lat="46.00055" lon="4.54228">
        <ele>622</ele>
        <time>2021-12-28T18:19:47Z</time>
      </trkpt>
      <trkpt lat="46.00029" lon="4.54257">
        <ele>627</ele>
        <time>2021-12-28T18:20:30Z</time>
      </trkpt>
      <trkpt lat="46.00021" lon="4.54262">
        <ele>628</ele>
        <time>2021-12-28T18:20:42Z</time>
      </trkpt>
      <trkpt lat="46.00019" lon="4.54239">
        <ele>625</ele>
        <time>2021-12-28T18:21:04Z</time>
      </trkpt>
      <trkpt lat="46.00013" lon="4.5421">
        <ele>620</ele>
        <time>2021-12-28T18:21:32Z</time>
      </trkpt>
      <trkpt lat="45.99995" lon="4.5418">
        <ele>618</ele>
        <time>2021-12-28T18:22:08Z</time>
      </trkpt>
      <trkpt lat="45.99973" lon="4.54097">
        <ele>614</ele>
        <time>2021-12-28T18:23:31Z</time>
      </trkpt>
      <trkpt lat="45.99952" lon="4.54056">
        <ele>614</ele>
        <time>2021-12-28T18:24:18Z</time>
      </trkpt>
      <trkpt lat="45.9985" lon="4.5393">
        <ele>593</ele>
        <time>2021-12-28T18:27:17Z</time>
      </trkpt>
      <trkpt lat="45.99836" lon="4.53916">
        <ele>590</ele>
        <time>2021-12-28T18:27:40Z</time>
      </trkpt>
      <trkpt lat="45.99808" lon="4.53905">
        <ele>581</ele>
        <time>2021-12-28T18:28:19Z</time>
      </trkpt>
      <trkpt lat="45.99792" lon="4.53905">
        <ele>577</ele>
        <time>2021-12-28T18:28:40Z</time>
      </trkpt>
      <trkpt lat="45.99776" lon="4.53909">
        <ele>574</ele>
        <time>2021-12-28T18:29:02Z</time>
      </trkpt>
      <trkpt lat="45.99765" lon="4.53923">
        <ele>574</ele>
        <time>2021-12-28T18:29:21Z</time>
      </trkpt>
      <trkpt lat="45.99743" lon="4.53965">
        <ele>581</ele>
        <time>2021-12-28T18:30:10Z</time>
      </trkpt>
      <trkpt lat="45.99727" lon="4.53983">
        <ele>582</ele>
        <time>2021-12-28T18:30:37Z</time>
      </trkpt>
      <trkpt lat="45.99695" lon="4.54003">
        <ele>582</ele>
        <time>2021-12-28T18:31:24Z</time>
      </trkpt>
      <trkpt lat="45.9967" lon="4.54013">
        <ele>581</ele>
        <time>2021-12-28T18:31:58Z</time>
      </trkpt>
      <trkpt lat="45.99638" lon="4.54062">
        <ele>593</ele>
        <time>2021-12-28T18:33:01Z</time>
      </trkpt>
      <trkpt lat="45.99588" lon="4.54114">
        <ele>601</ele>
        <time>2021-12-28T18:34:23Z</time>
      </trkpt>
      <trkpt lat="45.99576" lon="4.5411">
        <ele>602</ele>
        <time>2021-12-28T18:34:40Z</time>
      </trkpt>
      <trkpt lat="45.99569" lon="4.54097">
        <ele>600</ele>
        <time>2021-12-28T18:34:55Z</time>
      </trkpt>
      <trkpt lat="45.99536" lon="4.54002">
        <ele>595</ele>
        <time>2021-12-28T18:36:33Z</time>
      </trkpt>
      <trkpt lat="45.99525" lon="4.53983">
        <ele>597</ele>
        <time>2021-12-28T18:36:56Z</time>
      </trkpt>
      <trkpt lat="45.99509" lon="4.53943">
        <ele>598</ele>
        <time>2021-12-28T18:37:39Z</time>
      </trkpt>
      <trkpt lat="45.99495" lon="4.53945">
        <ele>599</ele>
        <time>2021-12-28T18:37:58Z</time>
      </trkpt>
      <trkpt lat="45.99478" lon="4.53962">
        <ele>597</ele>
        <time>2021-12-28T18:38:25Z</time>
      </trkpt>
      <trkpt lat="45.99438" lon="4.54006">
        <ele>596</ele>
        <time>2021-12-28T18:39:33Z</time>
      </trkpt>
      <trkpt lat="45.99404" lon="4.5405">
        <ele>603</ele>
        <time>2021-12-28T18:40:34Z</time>
      </trkpt>
      <trkpt lat="45.99382" lon="4.54075">
        <ele>607</ele>
        <time>2021-12-28T18:41:11Z</time>
      </trkpt>
      <trkpt lat="45.99368" lon="4.54083">
        <ele>607</ele>
        <time>2021-12-28T18:41:31Z</time>
      </trkpt>
      <trkpt lat="45.99352" lon="4.54087">
        <ele>607</ele>
        <time>2021-12-28T18:41:53Z</time>
      </trkpt>
      <trkpt lat="45.99334" lon="4.54079">
        <ele>602</ele>
        <time>2021-12-28T18:42:18Z</time>
      </trkpt>
      <trkpt lat="45.99302" lon="4.54055">
        <ele>600</ele>
        <time>2021-12-28T18:43:06Z</time>
      </trkpt>
      <trkpt lat="45.99178" lon="4.53979">
        <ele>597</ele>
        <time>2021-12-28T18:46:06Z</time>
      </trkpt>
      <trkpt lat="45.991" lon="4.53924">
        <ele>584</ele>
        <time>2021-12-28T18:48:02Z</time>
      </trkpt>
      <trkpt lat="45.99076" lon="4.53911">
        <ele>581</ele>
        <time>2021-12-28T18:48:36Z</time>
      </trkpt>
      <trkpt lat="45.99061" lon="4.53909">
        <ele>578</ele>
        <time>2021-12-28T18:48:56Z</time>
      </trkpt>
      <trkpt lat="45.99032" lon="4.53918">
        <ele>575</ele>
        <time>2021-12-28T18:49:36Z</time>
      </trkpt>
      <trkpt lat="45.99019" lon="4.53929">
        <ele>574</ele>
        <time>2021-12-28T18:49:56Z</time>
      </trkpt>
      <trkpt lat="45.9901" lon="4.53953">
        <ele>576</ele>
        <time>2021-12-28T18:50:21Z</time>
      </trkpt>
      <trkpt lat="45.99006" lon="4.53977">
        <ele>578</ele>
        <time>2021-12-28T18:50:44Z</time>
      </trkpt>
      <trkpt lat="45.98996" lon="4.53995">
        <ele>579</ele>
        <time>2021-12-28T18:51:05Z</time>
      </trkpt>
      <trkpt lat="45.98961" lon="4.54032">
        <ele>584</ele>
        <time>2021-12-28T18:52:03Z</time>
      </trkpt>
      <trkpt lat="45.98946" lon="4.54026">
        <ele>582</ele>
        <time>2021-12-28T18:52:24Z</time>
      </trkpt>
      <trkpt lat="45.9893" lon="4.54011">
        <ele>577</ele>
        <time>2021-12-28T18:52:50Z</time>
      </trkpt>
      <trkpt lat="45.98911" lon="4.54002">
        <ele>574</ele>
        <time>2021-12-28T18:53:16Z</time>
      </trkpt>
      <trkpt lat="45.98885" lon="4.53985">
        <ele>570</ele>
        <time>2021-12-28T18:53:54Z</time>
      </trkpt>
      <trkpt lat="45.98866" lon="4.53979">
        <ele>569</ele>
        <time>2021-12-28T18:54:20Z</time>
      </trkpt>
      <trkpt lat="45.98844" lon="4.53983">
        <ele>570</ele>
        <time>2021-12-28T18:54:50Z</time>
      </trkpt>
      <trkpt lat="45.98788" lon="4.54016">
        <ele>583</ele>
        <time>2021-12-28T18:56:11Z</time>
      </trkpt>
      <trkpt lat="45.98774" lon="4.54022">
        <ele>586</ele>
        <time>2021-12-28T18:56:30Z</time>
      </trkpt>
      <trkpt lat="45.98758" lon="4.54025">
        <ele>587</ele>
        <time>2021-12-28T18:56:52Z</time>
      </trkpt>
      <trkpt lat="45.98739" lon="4.54022">
        <ele>588</ele>
        <time>2021-12-28T18:57:17Z</time>
      </trkpt>
      <trkpt lat="45.98686" lon="4.53997">
        <ele>586</ele>
        <time>2021-12-28T18:58:32Z</time>
      </trkpt>
      <trkpt lat="45.98623" lon="4.53992">
        <ele>593</ele>
        <time>2021-12-28T18:59:56Z</time>
      </trkpt>
      <trkpt lat="45.98606" lon="4.53986">
        <ele>593</ele>
        <time>2021-12-28T19:00:19Z</time>
      </trkpt>
      <trkpt lat="45.9858" lon="4.53932">
        <ele>578</ele>
        <time>2021-12-28T19:01:20Z</time>
      </trkpt>
      <trkpt lat="45.98568" lon="4.53914">
        <ele>574</ele>
        <time>2021-12-28T19:01:43Z</time>
      </trkpt>
      <trkpt lat="45.98531" lon="4.53881">
        <ele>575</ele>
        <time>2021-12-28T19:02:41Z</time>
      </trkpt>
      <trkpt lat="45.98522" lon="4.53867">
        <ele>574</ele>
        <time>2021-12-28T19:02:59Z</time>
      </trkpt>
      <trkpt lat="45.98509" lon="4.53833">
        <ele>568</ele>
        <time>2021-12-28T19:03:35Z</time>
      </trkpt>
      <trkpt lat="45.98476" lon="4.53785">
        <ele>564</ele>
        <time>2021-12-28T19:04:38Z</time>
      </trkpt>
      <trkpt lat="45.98452" lon="4.53758">
        <ele>560</ele>
        <time>2021-12-28T19:05:18Z</time>
      </trkpt>
      <trkpt lat="45.98411" lon="4.53735">
        <ele>556</ele>
        <time>2021-12-28T19:06:17Z</time>
      </trkpt>
      <trkpt lat="45.98386" lon="4.53742">
        <ele>550</ele>
        <time>2021-12-28T19:06:51Z</time>
      </trkpt>
      <trkpt lat="45.98369" lon="4.53756">
        <ele>548</ele>
        <time>2021-12-28T19:07:17Z</time>
      </trkpt>
      <trkpt lat="45.98362" lon="4.53779">
        <ele>551</ele>
        <time>2021-12-28T19:07:40Z</time>
      </trkpt>
      <trkpt lat="45.98344" lon="4.53817">
        <ele>553</ele>
        <time>2021-12-28T19:08:23Z</time>
      </trkpt>
      <trkpt lat="45.98322" lon="4.53841">
        <ele>554</ele>
        <time>2021-12-28T19:09:00Z</time>
      </trkpt>
      <trkpt lat="45.98307" lon="4.53852">
        <ele>555</ele>
        <time>2021-12-28T19:09:22Z</time>
      </trkpt>
      <trkpt lat="45.98282" lon="4.53869">
        <ele>557</ele>
        <time>2021-12-28T19:09:59Z</time>
      </trkpt>
      <trkpt lat="45.98261" lon="4.53864">
        <ele>552</ele>
        <time>2021-12-28T19:10:28Z</time>
      </trkpt>
      <trkpt lat="45.98229" lon="4.53863">
        <ele>552</ele>
        <time>2021-12-28T19:11:10Z</time>
      </trkpt>
      <trkpt lat="45.98161" lon="4.53871">
        <ele>559</ele>
        <time>2021-12-28T19:12:41Z</time>
      </trkpt>
      <trkpt lat="45.98112" lon="4.53885">
        <ele>559</ele>
        <time>2021-12-28T19:13:48Z</time>
      </trkpt>
      <trkpt lat="45.98104" lon="4.53901">
        <ele>561</ele>
        <time>2021-12-28T19:14:06Z</time>
      </trkpt>
      <trkpt lat="45.98083" lon="4.53926">
        <ele>561</ele>
        <time>2021-12-28T19:14:43Z</time>
      </trkpt>
      <trkpt lat="45.9807" lon="4.53959">
        <ele>561</ele>
        <time>2021-12-28T19:15:18Z</time>
      </trkpt>
      <trkpt lat="45.98054" lon="4.54034">
        <ele>567</ele>
        <time>2021-12-28T19:16:31Z</time>
      </trkpt>
      <trkpt lat="45.98032" lon="4.54083">
        <ele>570</ele>
        <time>2021-12-28T19:17:25Z</time>
      </trkpt>
      <trkpt lat="45.97998" lon="4.54139">
        <ele>570</ele>
        <time>2021-12-28T19:18:34Z</time>
      </trkpt>
      <trkpt lat="45.97945" lon="4.54207">
        <ele>570</ele>
        <time>2021-12-28T19:20:08Z</time>
      </trkpt>
      <trkpt lat="45.97894" lon="4.54247">
        <ele>567</ele>
        <time>2021-12-28T19:21:26Z</time>
      </trkpt>
      <trkpt lat="45.97883" lon="4.54262">
        <ele>567</ele>
        <time>2021-12-28T19:21:46Z</time>
      </trkpt>
      <trkpt lat="45.97849" lon="4.54332">
        <ele>571</ele>
        <time>2021-12-28T19:23:05Z</time>
      </trkpt>
      <trkpt lat="45.97839" lon="4.54348">
        <ele>571</ele>
        <time>2021-12-28T19:23:25Z</time>
      </trkpt>
      <trkpt lat="45.97833" lon="4.54364">
        <ele>571</ele>
        <time>2021-12-28T19:23:42Z</time>
      </trkpt>
      <trkpt lat="45.97826" lon="4.54393">
        <ele>572</ele>
        <time>2021-12-28T19:24:11Z</time>
      </trkpt>
      <trkpt lat="45.9782" lon="4.54403">
        <ele>572</ele>
        <time>2021-12-28T19:24:23Z</time>
      </trkpt>
      <trkpt lat="45.97815" lon="4.54406">
        <ele>571</ele>
        <time>2021-12-28T19:24:30Z</time>
      </trkpt>
      <trkpt lat="45.97805" lon="4.54421">
        <ele>571</ele>
        <time>2021-12-28T19:24:49Z</time>
      </trkpt>
      <trkpt lat="45.97804" lon="4.54435">
        <ele>572</ele>
        <time>2021-12-28T19:25:02Z</time>
      </trkpt>
      <trkpt lat="45.97794" lon="4.54466">
        <ele>574</ele>
        <time>2021-12-28T19:25:34Z</time>
      </trkpt>
      <trkpt lat="45.9777" lon="4.54522">
        <ele>576</ele>
        <time>2021-12-28T19:26:35Z</time>
      </trkpt>
      <trkpt lat="45.97742" lon="4.54517">
        <ele>573</ele>
        <time>2021-12-28T19:27:13Z</time>
      </trkpt>
      <trkpt lat="45.97666" lon="4.54481">
        <ele>564</ele>
        <time>2021-12-28T19:29:00Z</time>
      </trkpt>
      <trkpt lat="45.97658" lon="4.54463">
        <ele>559</ele>
        <time>2021-12-28T19:29:19Z</time>
      </trkpt>
      <trkpt lat="45.97626" lon="4.5445">
        <ele>554</ele>
        <time>2021-12-28T19:30:04Z</time>
      </trkpt>
      <trkpt lat="45.9758" lon="4.54451">
        <ele>550</ele>
        <time>2021-12-28T19:31:05Z</time>
      </trkpt>
      <trkpt lat="45.97545" lon="4.54447">
        <ele>543</ele>
        <time>2021-12-28T19:31:52Z</time>
      </trkpt>
      <trkpt lat="45.97504" lon="4.54451">
        <ele>536</ele>
        <time>2021-12-28T19:32:47Z</time>
      </trkpt>
      <trkpt lat="45.9746" lon="4.54445">
        <ele>527</ele>
        <time>2021-12-28T19:33:46Z</time>
      </trkpt>
      <trkpt lat="45.97439" lon="4.5445">
        <ele>523</ele>
        <time>2021-12-28T19:34:14Z</time>
      </trkpt>
      <trkpt lat="45.97405" lon="4.54451">
        <ele>516</ele>
        <time>2021-12-28T19:35:00Z</time>
      </trkpt>
      <trkpt lat="45.97371" lon="4.54459">
        <ele>508</ele>
        <time>2021-12-28T19:35:46Z</time>
      </trkpt>
      <trkpt lat="45.97335" lon="4.54462">
        <ele>499</ele>
        <time>2021-12-28T19:36:34Z</time>
      </trkpt>
      <trkpt lat="45.97265" lon="4.54443">
        <ele>484</ele>
        <time>2021-12-28T19:38:09Z</time>
      </trkpt>
      <trkpt lat="45.97235" lon="4.5443">
        <ele>478</ele>
        <time>2021-12-28T19:38:51Z</time>
      </trkpt>
      <trkpt lat="45.97214" lon="4.54423">
        <ele>474</ele>
        <time>2021-12-28T19:39:19Z</time>
      </trkpt>
      <trkpt lat="45.97187" lon="4.54425">
        <ele>471</ele>
        <time>2021-12-28T19:39:55Z</time>
      </trkpt>
      <trkpt lat="45.97162" lon="4.5443">
        <ele>467</ele>
        <time>2021-12-28T19:40:29Z</time>
      </trkpt>
      <trkpt lat="45.97153" lon="4.54417">
        <ele>466</ele>
        <time>2021-12-28T19:40:46Z</time>
      </trkpt>
      <trkpt lat="45.97154" lon="4.54391">
        <ele>463</ele>
        <time>2021-12-28T19:41:10Z</time>
      </trkpt>
      <trkpt lat="45.97186" lon="4.54336">
        <ele>462</ele>
        <time>2021-12-28T19:42:17Z</time>
      </trkpt>
      <trkpt lat="45.97198" lon="4.54322">
        <ele>461</ele>
        <time>2021-12-28T19:42:37Z</time>
      </trkpt>
      <trkpt lat="45.97222" lon="4.54309">
        <ele>462</ele>
        <time>2021-12-28T19:43:12Z</time>
      </trkpt>
      <trkpt lat="45.9725" lon="4.54302">
        <ele>464</ele>
        <time>2021-12-28T19:43:50Z</time>
      </trkpt>
      <trkpt lat="45.97274" lon="4.54289">
        <ele>466</ele>
        <time>2021-12-28T19:44:24Z</time>
      </trkpt>
      <trkpt lat="45.973" lon="4.54253">
        <ele>464</ele>
        <time>2021-12-28T19:45:12Z</time>
      </trkpt>
      <trkpt lat="45.97308" lon="4.54231">
        <ele>462</ele>
        <time>2021-12-28T19:45:35Z</time>
      </trkpt>
      <trkpt lat="45.97307" lon="4.54227">
        <ele>461</ele>
        <time>2021-12-28T19:45:39Z</time>
      </trkpt>
      <trkpt lat="45.97309" lon="4.5421">
        <ele>458</ele>
        <time>2021-12-28T19:45:55Z</time>
      </trkpt>
      <trkpt lat="45.97347" lon="4.54102">
        <ele>452</ele>
        <time>2021-12-28T19:47:47Z</time>
      </trkpt>
      <trkpt lat="45.97354" lon="4.54055">
        <ele>448</ele>
        <time>2021-12-28T19:48:32Z</time>
      </trkpt>
      <trkpt lat="45.9737" lon="4.53995">
        <ele>447</ele>
        <time>2021-12-28T19:49:31Z</time>
      </trkpt>
      <trkpt lat="45.97375" lon="4.53961">
        <ele>451</ele>
        <time>2021-12-28T19:50:04Z</time>
      </trkpt>
      <trkpt lat="45.97365" lon="4.53949">
        <ele>452</ele>
        <time>2021-12-28T19:50:21Z</time>
      </trkpt>
      <trkpt lat="45.97358" lon="4.53954">
        <ele>451</ele>
        <time>2021-12-28T19:50:31Z</time>
      </trkpt>
      <trkpt lat="45.97332" lon="4.53964">
        <ele>447</ele>
        <time>2021-12-28T19:51:07Z</time>
      </trkpt>
      <trkpt lat="45.97316" lon="4.53976">
        <ele>443</ele>
        <time>2021-12-28T19:51:31Z</time>
      </trkpt>
      <trkpt lat="45.97278" lon="4.53977">
        <ele>440</ele>
        <time>2021-12-28T19:52:22Z</time>
      </trkpt>
      <trkpt lat="45.9725" lon="4.53987">
        <ele>436</ele>
        <time>2021-12-28T19:53:01Z</time>
      </trkpt>
      <trkpt lat="45.97244" lon="4.53991">
        <ele>435</ele>
        <time>2021-12-28T19:53:09Z</time>
      </trkpt>
      <trkpt lat="45.97225" lon="4.53995">
        <ele>432</ele>
        <time>2021-12-28T19:53:35Z</time>
      </trkpt>
      <trkpt lat="45.97188" lon="4.53991">
        <ele>428</ele>
        <time>2021-12-28T19:54:25Z</time>
      </trkpt>
      <trkpt lat="45.97169" lon="4.53997">
        <ele>426</ele>
        <time>2021-12-28T19:54:51Z</time>
      </trkpt>
      <trkpt lat="45.97134" lon="4.54002">
        <ele>421</ele>
        <time>2021-12-28T19:55:37Z</time>
      </trkpt>
      <trkpt lat="45.97122" lon="4.53997">
        <ele>419</ele>
        <time>2021-12-28T19:55:54Z</time>
      </trkpt>
      <trkpt lat="45.97067" lon="4.5394">
        <ele>418</ele>
        <time>2021-12-28T19:57:25Z</time>
      </trkpt>
      <trkpt lat="45.97053" lon="4.53924">
        <ele>417</ele>
        <time>2021-12-28T19:57:48Z</time>
      </trkpt>
      <trkpt lat="45.97039" lon="4.53902">
        <ele>414</ele>
        <time>2021-12-28T19:58:16Z</time>
      </trkpt>
      <trkpt lat="45.97033" lon="4.53888">
        <ele>413</ele>
        <time>2021-12-28T19:58:31Z</time>
      </trkpt>
      <trkpt lat="45.97015" lon="4.53833">
        <ele>410</ele>
        <time>2021-12-28T19:59:28Z</time>
      </trkpt>
      <trkpt lat="45.97005" lon="4.53794">
        <ele>405</ele>
        <time>2021-12-28T20:00:06Z</time>
      </trkpt>
      <trkpt lat="45.96987" lon="4.53786">
        <ele>402</ele>
        <time>2021-12-28T20:00:31Z</time>
      </trkpt>
      <trkpt lat="45.96986" lon="4.53779">
        <ele>402</ele>
        <time>2021-12-28T20:00:38Z</time>
      </trkpt>
      <trkpt lat="45.96993" lon="4.53765">
        <ele>401</ele>
        <time>2021-12-28T20:00:54Z</time>
      </trkpt>
      <trkpt lat="45.96997" lon="4.53754">
        <ele>401</ele>
        <time>2021-12-28T20:01:06Z</time>
      </trkpt>
      <trkpt lat="45.96996" lon="4.53743">
        <ele>401</ele>
        <time>2021-12-28T20:01:16Z</time>
      </trkpt>
      <trkpt lat="45.96992" lon="4.53731">
        <ele>402</ele>
        <time>2021-12-28T20:01:28Z</time>
      </trkpt>
      <trkpt lat="45.96986" lon="4.5372">
        <ele>403</ele>
        <time>2021-12-28T20:01:41Z</time>
      </trkpt>
      <trkpt lat="45.96966" lon="4.53696">
        <ele>404</ele>
        <time>2021-12-28T20:02:16Z</time>
      </trkpt>
      <trkpt lat="45.96948" lon="4.53679">
        <ele>403</ele>
        <time>2021-12-28T20:02:45Z</time>
      </trkpt>
      <trkpt lat="45.9693" lon="4.53643">
        <ele>407</ele>
        <time>2021-12-28T20:03:26Z</time>
      </trkpt>
      <trkpt lat="45.96921" lon="4.53612">
        <ele>411</ele>
        <time>2021-12-28T20:03:57Z</time>
      </trkpt>
      <trkpt lat="45.96918" lon="4.53597">
        <ele>413</ele>
        <time>2021-12-28T20:04:11Z</time>
      </trkpt>
      <trkpt lat="45.969" lon="4.53539">
        <ele>413</ele>
        <time>2021-12-28T20:05:10Z</time>
      </trkpt>
      <trkpt lat="45.96903" lon="4.53504">
        <ele>416</ele>
        <time>2021-12-28T20:05:43Z</time>
      </trkpt>
      <trkpt lat="45.96909" lon="4.53467">
        <ele>417</ele>
        <time>2021-12-28T20:06:18Z</time>
      </trkpt>
      <trkpt lat="45.96929" lon="4.53425">
        <ele>421</ele>
        <time>2021-12-28T20:07:06Z</time>
      </trkpt>
      <trkpt lat="45.96933" lon="4.53401">
        <ele>425</ele>
        <time>2021-12-28T20:07:28Z</time>
      </trkpt>
      <trkpt lat="45.9693" lon="4.53377">
        <ele>428</ele>
        <time>2021-12-28T20:07:51Z</time>
      </trkpt>
      <trkpt lat="45.96925" lon="4.53359">
        <ele>430</ele>
        <time>2021-12-28T20:08:09Z</time>
      </trkpt>
      <trkpt lat="45.96914" lon="4.53344">
        <ele>431</ele>
        <time>2021-12-28T20:08:29Z</time>
      </trkpt>
      <trkpt lat="45.96894" lon="4.5334">
        <ele>427</ele>
        <time>2021-12-28T20:08:56Z</time>
      </trkpt>
      <trkpt lat="45.96868" lon="4.53338">
        <ele>422</ele>
        <time>2021-12-28T20:09:31Z</time>
      </trkpt>
      <trkpt lat="45.96861" lon="4.53332">
        <ele>422</ele>
        <time>2021-12-28T20:09:42Z</time>
      </trkpt>
      <trkpt lat="45.96846" lon="4.53286">
        <ele>427</ele>
        <time>2021-12-28T20:10:29Z</time>
      </trkpt>
      <trkpt lat="45.96834" lon="4.53263">
        <ele>429</ele>
        <time>2021-12-28T20:10:56Z</time>
      </trkpt>
      <trkpt lat="45.96822" lon="4.53247">
        <ele>428</ele>
        <time>2021-12-28T20:11:17Z</time>
      </trkpt>
      <trkpt lat="45.96809" lon="4.53223">
        <ele>426</ele>
        <time>2021-12-28T20:11:46Z</time>
      </trkpt>
      <trkpt lat="45.96804" lon="4.532">
        <ele>427</ele>
        <time>2021-12-28T20:12:08Z</time>
      </trkpt>
      <trkpt lat="45.96804" lon="4.53182">
        <ele>429</ele>
        <time>2021-12-28T20:12:25Z</time>
      </trkpt>
      <trkpt lat="45.96813" lon="4.53152">
        <ele>432</ele>
        <time>2021-12-28T20:12:55Z</time>
      </trkpt>
      <trkpt lat="45.96834" lon="4.53094">
        <ele>434</ele>
        <time>2021-12-28T20:13:56Z</time>
      </trkpt>
      <trkpt lat="45.96868" lon="4.5301">
        <ele>431</ele>
        <time>2021-12-28T20:15:26Z</time>
      </trkpt>
      <trkpt lat="45.96889" lon="4.52975">
        <ele>433</ele>
        <time>2021-12-28T20:16:09Z</time>
      </trkpt>
      <trkpt lat="45.96918" lon="4.52941">
        <ele>437</ele>
        <time>2021-12-28T20:16:59Z</time>
      </trkpt>
      <trkpt lat="45.96907" lon="4.52874">
        <ele>431</ele>
        <time>2021-12-28T20:18:03Z</time>
      </trkpt>
      <trkpt lat="45.96903" lon="4.52833">
        <ele>428</ele>
        <time>2021-12-28T20:18:41Z</time>
      </trkpt>
      <trkpt lat="45.96854" lon="4.52813">
        <ele>427</ele>
        <time>2021-12-28T20:19:49Z</time>
      </trkpt>
      <trkpt lat="45.96691" lon="4.52751">
        <ele>417</ele>
        <time>2021-12-28T20:23:34Z</time>
      </trkpt>
      <trkpt lat="45.96679" lon="4.52752">
        <ele>416</ele>
        <time>2021-12-28T20:23:50Z</time>
      </trkpt>
      <trkpt lat="45.96638" lon="4.52777">
        <ele>410</ele>
        <time>2021-12-28T20:24:49Z</time>
      </trkpt>
      <trkpt lat="45.96601" lon="4.52797">
        <ele>404</ele>
        <time>2021-12-28T20:25:42Z</time>
      </trkpt>
      <trkpt lat="45.96573" lon="4.52805">
        <ele>400</ele>
        <time>2021-12-28T20:26:20Z</time>
      </trkpt>
      <trkpt lat="45.96554" lon="4.528">
        <ele>398</ele>
        <time>2021-12-28T20:26:46Z</time>
      </trkpt>
      <trkpt lat="45.96523" lon="4.52764">
        <ele>398</ele>
        <time>2021-12-28T20:27:39Z</time>
      </trkpt>
      <trkpt lat="45.96506" lon="4.52747">
        <ele>397</ele>
        <time>2021-12-28T20:28:07Z</time>
      </trkpt>
      <trkpt lat="45.96462" lon="4.5274">
        <ele>388</ele>
        <time>2021-12-28T20:29:06Z</time>
      </trkpt>
      <trkpt lat="45.96441" lon="4.52726">
        <ele>386</ele>
        <time>2021-12-28T20:29:37Z</time>
      </trkpt>
      <trkpt lat="45.96409" lon="4.5268">
        <ele>383</ele>
        <time>2021-12-28T20:30:37Z</time>
      </trkpt>
      <trkpt lat="45.96383" lon="4.52617">
        <ele>379</ele>
        <time>2021-12-28T20:31:45Z</time>
      </trkpt>
      <trkpt lat="45.96362" lon="4.52574">
        <ele>373</ele>
        <time>2021-12-28T20:32:34Z</time>
      </trkpt>
      <trkpt lat="45.96333" lon="4.5247">
        <ele>365</ele>
        <time>2021-12-28T20:34:18Z</time>
      </trkpt>
      <trkpt lat="45.96322" lon="4.52451">
        <ele>363</ele>
        <time>2021-12-28T20:34:41Z</time>
      </trkpt>
      <trkpt lat="45.96304" lon="4.52446">
        <ele>360</ele>
        <time>2021-12-28T20:35:05Z</time>
      </trkpt>
      <trkpt lat="45.96269" lon="4.52449">
        <ele>354</ele>
        <time>2021-12-28T20:35:52Z</time>
      </trkpt>
      <trkpt lat="45.96268" lon="4.52461">
        <ele>353</ele>
        <time>2021-12-28T20:36:03Z</time>
      </trkpt>
      <trkpt lat="45.96231" lon="4.52462">
        <ele>347</ele>
        <time>2021-12-28T20:36:53Z</time>
      </trkpt>
      <trkpt lat="45.96212" lon="4.52458">
        <ele>345</ele>
        <time>2021-12-28T20:37:18Z</time>
      </trkpt>
      <trkpt lat="45.96055" lon="4.52503">
        <ele>324</ele>
        <time>2021-12-28T20:40:52Z</time>
      </trkpt>
      <trkpt lat="45.96014" lon="4.52492">
        <ele>319</ele>
        <time>2021-12-28T20:41:47Z</time>
      </trkpt>
      <trkpt lat="45.95959" lon="4.52465">
        <ele>312</ele>
        <time>2021-12-28T20:43:05Z</time>
      </trkpt>
      <trkpt lat="45.95914" lon="4.52438">
        <ele>307</ele>
        <time>2021-12-28T20:44:10Z</time>
      </trkpt>
      <trkpt lat="45.95871" lon="4.5242">
        <ele>304</ele>
        <time>2021-12-28T20:45:10Z</time>
      </trkpt>
      <trkpt lat="45.95837" lon="4.52409">
        <ele>300</ele>
        <time>2021-12-28T20:45:56Z</time>
      </trkpt>
      <trkpt lat="45.95782" lon="4.52399">
        <ele>295</ele>
        <time>2021-12-28T20:47:10Z</time>
      </trkpt>
      <trkpt lat="45.95743" lon="4.52386">
        <ele>292</ele>
        <time>2021-12-28T20:48:04Z</time>
      </trkpt>
      <trkpt lat="45.95658" lon="4.52345">
        <ele>287</ele>
        <time>2021-12-28T20:50:03Z</time>
      </trkpt>
      <trkpt lat="45.95643" lon="4.52333">
        <ele>286</ele>
        <time>2021-12-28T20:50:26Z</time>
      </trkpt>
      <trkpt lat="45.95653" lon="4.52323">
        <ele>286</ele>
        <time>2021-12-28T20:50:43Z</time>
      </trkpt>
      <trkpt lat="45.95722" lon="4.5222">
        <ele>287</ele>
        <time>2021-12-28T20:52:55Z</time>
      </trkpt>
      <trkpt lat="45.95767" lon="4.52138">
        <ele>286</ele>
        <time>2021-12-28T20:54:32Z</time>
      </trkpt>
      <trkpt lat="45.95866" lon="4.51948">
        <ele>286</ele>
        <time>2021-12-28T20:58:12Z</time>
      </trkpt>
    </trkseg>
  </trk>
</gpx>